Flag for Cyprus Weather past 2 weeks in Paphos, Cyprus

73 °F

Scattered clouds.

Feels Like: 75 °F
Forecast: 60 / 73 °F
Wind: 10 mph from Northwest

Location: Paphos Airport

Current Time: Nov 27, 2015 at 4:47:54 PM

Latest Report: Nov 27, 2015 at 4:00 PM

Visibility: N/A

Pressure: 29.98 "Hg

Humidity: 74%

Dew point: 64 °F

Location of PaphosLocation

Historic Weather in Paphos — Graph


Paphos temperature yesterday

Maximum temperature yesterday: 77 °F (at 10:00 AM)
Minimum temperature yesterday: 64 °F (at 7:30 PM)
Average temperature yesterday: 71 °F

Past Weeks' High & Low Weather Summary

High79 °F (Nov 13, 12:30 PM)88% (Nov 27, 5:00 AM)30.24 "Hg (Nov 27, 5:00 AM)
Low54 °F (Nov 20, 1:30 AM)30% (Nov 14, 9:30 AM)29.74 "Hg (Nov 16, 1:00 PM)
Average67 °F61%30.03 "Hg
* Reported Nov 12 4:00 PM — Nov 27 4:00 PM, Paphos, Weather by CustomWeather, © 2015

Note: Actual official high and low records may vary slightly from our data, if they occured in-between our weather recording intervals... More about our weather records


Paphos weather history for previous 24 hours

Time TempWeatherWind HumidityBarometerVisibility
4:00 PM
Fri, Nov 27
73 °FScattered clouds.10 mph74%29.98 "HgN/A
3:30 PM73 °FScattered clouds.12 mph74%29.98 "HgN/A
3:00 PM75 °FScattered clouds.14 mph74%29.98 "HgN/A
2:30 PM75 °FScattered clouds.12 mph69%29.98 "HgN/A
2:00 PM75 °FScattered clouds.9 mph69%29.98 "HgN/A
1:30 PM77 °FScattered clouds.10 mph65%29.98 "Hg5 mi
1:00 PM77 °FScattered clouds.13 mph69%29.98 "Hg3 mi
12:30 PM75 °FScattered clouds.10 mph69%29.98 "Hg2 mi
12:00 PM77 °FScattered clouds.10 mph65%29.98 "Hg6 mi
11:30 AM77 °FScattered clouds.12 mph65%29.98 "HgN/A
11:00 AM75 °FScattered clouds.12 mph69%29.98 "HgN/A
10:30 AM75 °FScattered clouds.10 mph69%29.98 "HgN/A
10:00 AM75 °FScattered clouds.10 mph65%29.98 "HgN/A
9:00 AM73 °FScattered clouds.10 mph69%29.98 "HgN/A
8:30 AM72 °FScattered clouds.6 mph73%29.98 "HgN/A
8:00 AM68 °FScattered clouds.6 mph78%29.98 "HgN/A
7:30 AM64 °FScattered clouds.6 mph88%29.98 "HgN/A
7:00 AM63 °FScattered clouds.5 mph88%29.95 "HgN/A
6:00 AM63 °FPassing clouds.8 mph88%29.95 "HgN/A
5:30 AM61 °FPassing clouds.5 mph88%29.95 "HgN/A
5:00 AM61 °FPassing clouds.5 mph88%29.92 "HgN/A
4:30 AM63 °FMild.5 mph83%29.92 "HgN/A
4:00 AM64 °FPassing clouds.7 mph83%29.92 "HgN/A
3:30 AM64 °FPassing clouds.8 mph83%29.95 "HgN/A
3:00 AM63 °FMild.7 mph83%29.95 "HgN/A
2:30 AM63 °FMild.5 mph83%29.95 "HgN/A
2:00 AM66 °FPassing clouds.7 mph78%29.95 "HgN/A
1:30 AM66 °FPassing clouds.5 mph78%29.95 "HgN/A
1:00 AM66 °FPassing clouds.3 mph78%29.95 "HgN/A
12:00 AM66 °FPassing clouds.6 mph78%29.95 "HgN/A
11:30 PM
Thu, Nov 26
66 °FPassing clouds.3 mph78%29.95 "HgN/A
11:00 PM66 °FPassing clouds.6 mph78%29.95 "HgN/A
10:30 PM66 °FPassing clouds.3 mph78%29.92 "HgN/A
10:00 PM66 °FPassing clouds.8 mph78%29.92 "HgN/A
9:30 PM64 °FPassing clouds.7 mph83%29.92 "HgN/A
9:00 PM64 °FPassing clouds.8 mph78%29.92 "HgN/A
8:30 PM64 °FPassing clouds.6 mph78%29.92 "HgN/A
8:00 PM64 °FPassing clouds.6 mph78%29.92 "HgN/A
7:30 PM64 °FPassing clouds.5 mph78%29.89 "HgN/A
7:00 PM70 °FPassing clouds.3 mph64%29.89 "HgN/A
6:30 PM72 °FPassing clouds.3 mph65%29.89 "HgN/A
6:00 PM72 °FPassing clouds.3 mph69%29.86 "HgN/A
5:30 PM72 °FPassing clouds.5 mph69%29.86 "HgN/A
5:00 PM72 °FPassing clouds.6 mph69%29.86 "HgN/A
4:30 PM73 °FPassing clouds.5 mph69%29.86 "HgN/A
4:00 PM73 °FPassing clouds.6 mph69%29.86 "HgN/A
Weather by CustomWeather, © 2015

See weather overviewHow to use our weather pages